TimeCST,TemperatureF,Dew PointF,Humidity,Sea Level PressureIn,VisibilityMPH,Wind Direction,Wind SpeedMPH,Gust SpeedMPH,PrecipitationIn,Events,Conditions,WindDirDegrees,DateUTC
12:53 AM,19.9,16.0,85,29.83,10.0,NNW,10.4,-,N/A,,Overcast,340,2013-02-14 06:53:00
1:53 AM,19.0,14.0,81,29.86,10.0,North,13.8,-,N/A,,Overcast,350,2013-02-14 07:53:00
2:53 AM,18.0,12.0,78,29.89,10.0,NNW,13.8,-,N/A,,Overcast,340,2013-02-14 08:53:00
3:53 AM,16.0,10.0,77,29.91,10.0,North,15.0,-,N/A,,Overcast,360,2013-02-14 09:53:00
4:53 AM,14.0,8.1,77,29.94,10.0,North,16.1,-,N/A,,Overcast,360,2013-02-14 10:53:00
5:53 AM,10.9,5.0,77,29.96,10.0,North,15.0,-,N/A,,Mostly Cloudy,360,2013-02-14 11:53:00
6:53 AM,8.1,3.0,80,30.01,10.0,North,15.0,-,N/A,,Overcast,350,2013-02-14 12:53:00
7:53 AM,7.0,1.9,80,30.06,10.0,North,18.4,-,N/A,,Overcast,350,2013-02-14 13:53:00
8:53 AM,7.0,1.9,80,30.10,10.0,North,17.3,-,N/A,,Mostly Cloudy,350,2013-02-14 14:53:00
9:53 AM,7.0,1.9,80,30.14,10.0,North,16.1,-,N/A,,Scattered Clouds,350,2013-02-14 15:53:00
10:53 AM,8.1,1.9,76,30.17,10.0,North,18.4,-,N/A,,Scattered Clouds,350,2013-02-14 16:53:00
11:53 AM,10.9,3.9,73,30.19,10.0,NNW,18.4,-,N/A,,Partly Cloudy,330,2013-02-14 17:53:00
12:53 PM,12.0,5.0,73,30.20,10.0,North,15.0,-,N/A,,Partly Cloudy,350,2013-02-14 18:53:00
1:53 PM,14.0,6.1,71,30.21,10.0,NW,12.7,-,N/A,,Partly Cloudy,320,2013-02-14 19:53:00
2:53 PM,15.1,6.1,68,30.22,10.0,NW,10.4,-,N/A,,Scattered Clouds,320,2013-02-14 20:53:00
3:53 PM,15.1,6.1,68,30.24,10.0,NW,12.7,-,N/A,,Scattered Clouds,320,2013-02-14 21:53:00
4:53 PM,14.0,5.0,67,30.25,10.0,NW,10.4,-,N/A,,Scattered Clouds,310,2013-02-14 22:53:00
5:53 PM,12.9,5.0,71,30.27,10.0,WNW,9.2,-,N/A,,Mostly Cloudy,300,2013-02-14 23:53:00
6:53 PM,10.9,3.9,73,30.28,10.0,WNW,5.8,-,N/A,,Mostly Cloudy,290,2013-02-15 00:53:00
7:53 PM,14.0,6.1,71,30.27,10.0,NW,8.1,-,N/A,,Overcast,310,2013-02-15 01:53:00
8:53 PM,12.9,6.1,74,30.28,10.0,NW,8.1,-,N/A,,Overcast,310,2013-02-15 02:53:00
9:53 PM,7.0,1.9,80,30.29,10.0,NW,8.1,-,N/A,,Scattered Clouds,320,2013-02-15 03:53:00
10:53 PM,1.9,-0.9,88,30.31,10.0,NNW,4.6,-,N/A,,Clear,340,2013-02-15 04:53:00
11:53 PM,3.9,1.0,88,30.31,10.0,NW,4.6,-,N/A,,Clear,310,2013-02-15 05:53:00